Regional Weather Roundup
Issued by NWS

Home | Current Version | Previous Version | Text Only | Print | Product List | Glossary On
Versions: 1 2 3 4 5 6 7 8 9 10 11 12 13 14 15 16 17 18 19 20 21 22 23 24 25 26 27 28 29 30 31 32 33 34 35 36 37 38 39 40 41 42 43 44 45 46 47 48 49 50
000
ASUS45 KPSR 311200
RWRAZ

PRELIMINARY ARIZONA REGIONAL HOURLY WEATHER ROUNDUP
NATIONAL WEATHER SERVICE PHOENIX AZ
500 AM MST FRI OCT 31 2014

NOTE: FAIR INDICATES FEW OR NO CLOUDS BELOW 12,000 FEET WITH NO
SIGNIFICANT WEATHER AND/OR OBSTRUCTIONS TO VISIBILITY.

AZZ001>003-036-311300-
NORTHWEST ARIZONA

CITY           SKY/WX    TMP DP  RH WIND       PRES   REMARKS
KINGMAN        MOCLDY    60  33  36 SE9       30.01S
6HR MIN TEMP:  57; 6HR MAX TEMP:  68;

$$

AZZ004>008-015-016-018-311300-
NORTH CENTRAL ARIZONA

CITY           SKY/WX    TMP DP  RH WIND       PRES   REMARKS
GRAND CANYON   PTCLDY    34  19  54 CALM      30.22F
6HR MIN TEMP:  28; 6HR MAX TEMP:  35;

PRESCOTT       MOCLDY    51  32  48 SE6       30.12F
6HR MIN TEMP:  47; 6HR MAX TEMP:  52;

FLAGSTAFF      MOCLDY    39  26  59 CALM      30.26R
6HR MIN TEMP:  32; 6HR MAX TEMP:  39;

PAYSON         PTCLDY    61  30  31 VRB6G12   30.19R
PAGE           MOCLDY    50  21  32 SW3       30.14R
6HR MIN TEMP:  50; 6HR MAX TEMP:  57;

$$

AZZ009>014-017-311300-
NORTHEAST ARIZONA

CITY           SKY/WX    TMP DP  RH WIND       PRES   REMARKS
WINSLOW        NOT AVBL
SAINT JOHNS    PTCLDY    45  24  43 CALM      30.22R
6HR MIN TEMP:  43; 6HR MAX TEMP:  55;

WINDOW ROCK    PTCLDY    32  14  47 CALM      30.32R
6HR MIN TEMP:  30; 6HR MAX TEMP:  40;

$$

AZZ023-311300-
GREATER PHOENIX AREA

CITY           SKY/WX    TMP DP  RH WIND       PRES   REMARKS
PHOENIX        MOCLDY    69  43  38 E7        29.90R
6HR MIN TEMP:  68; 6HR MAX TEMP:  74;

LUKE AFB       PTCLDY    64  43  47 N2        29.89F
6HR MIN TEMP:  64; 6HR MAX TEMP:  69;

DEER VALLEY    PTCLDY    64  38  38 E3        29.91S
6HR MIN TEMP:  64; 6HR MAX TEMP:  77;

SCOTTSDALE     PTCLDY    68  41  37 CALM      29.94R
6HR MIN TEMP:  65; 6HR MAX TEMP:  73;

$$

AZZ027-028-311300-
SOUTHWEST MARICOPA COUNTY AND PINAL COUNTY

CITY           SKY/WX    TMP DP  RH WIND       PRES   REMARKS
CASA GRANDE    PTCLDY    61  41  48 CALM      29.93S
6HR MIN TEMP:  59; 6HR MAX TEMP:  70;

$$

AZZ503-504-507>509-311300-
SOUTHEAST ARIZONA

CITY           SKY/WX    TMP DP  RH WIND       PRES   REMARKS
TUCSON         PTCLDY    65  43  44 S10       30.00R
6HR MIN TEMP:  65; 6HR MAX TEMP:  71;

DAVIS-MONTHAN  PTCLDY    69  39  33 S8        29.98R
6HR MIN TEMP:  65; 6HR MAX TEMP:  71;

NOGALES        PTCLDY    58  42  55 E7        30.06S
6HR MIN TEMP:  52; 6HR MAX TEMP:  62;

SIERRA VISTA   PTCLDY    63  36  36 SE12      30.12S
SAFFORD        MOCLDY    66  32  28 E12       30.11R
6HR MIN TEMP:  60; 6HR MAX TEMP:  69;

$$

AZZ020-021-025-026-031-311300-
SOUTHWEST ARIZONA

CITY           SKY/WX    TMP DP  RH WIND       PRES   REMARKS
YUMA           NOT AVBL
$$

CAZ031-033-041-043-047-048-061-311300-
SOUTHERN CALIFORNIA

CITY           SKY/WX    TMP DP  RH WIND       PRES   REMARKS
DOWNTOWN L.A.  PTCLDY    62  58  86 CALM      29.94F
6HR MIN TEMP:  62; 6HR MAX TEMP:  66;

L.A. AIRPORT   MOCLDY    65  60  85 E5        29.94S
6HR MIN TEMP:  64; 6HR MAX TEMP:  66;

SAN DIEGO      MOCLDY    67  61  81 CALM      29.96S
6HR MIN TEMP:  67; 6HR MAX TEMP:  68;

BURBANK        MOCLDY    61  55  81 CALM      29.95S
6HR MIN TEMP:  59; 6HR MAX TEMP:  66;

ONTARIO        PTCLDY    57  53  86 CALM      29.95S
6HR MIN TEMP:  57; 6HR MAX TEMP:  64;

RIVERSIDE      CLEAR     57  54  89 CALM      29.96S
6HR MIN TEMP:  57; 6HR MAX TEMP:  64;

PALM SPRINGS   FAIR      65  45  48 CALM      29.87S
6HR MIN TEMP:  62; 6HR MAX TEMP:  78;

EL CENTRO NAS  CLEAR     59  39  47 CALM      29.83S
6HR MIN TEMP:  57; 6HR MAX TEMP:  72;

IMPERIAL       CLEAR     62  40  44 CALM      29.83S
6HR MIN TEMP:  61; 6HR MAX TEMP:  70;

BLYTHE         CLEAR     65  34  31 SW7       29.86R
6HR MIN TEMP:  63; 6HR MAX TEMP:  71;

$$

NVZ020-UTZ003-311300-
SOUTHERN NEVADA-UTAH

CITY           SKY/WX    TMP DP  RH WIND       PRES   REMARKS
LAS VEGAS      NOT AVBL
SALT LAKE CITY MOCLDY    58  23  26 SE16G26   30.01F
6HR MIN TEMP:  50; 6HR MAX TEMP:  61;

$$

NMZ009-TXZ055-311300-
NEW MEXICO-WEST TEXAS

CITY           SKY/WX    TMP DP  RH WIND       PRES   REMARKS
ALBUQUERQUE    PTCLDY    53  26  35 E20       30.34S
6HR MIN TEMP:  53; 6HR MAX TEMP:  59;

EL PASO        PTCLDY    58  48  69 CALM      30.29R
6HR MIN TEMP:  57; 6HR MAX TEMP:  65;

$$


........................KEY........................
SKY/WX - SKY CONDITION/WEATHER
TMP    - TEMPERATURE IN FAHRENHEIT
DP     - DEW POINT IN FAHRENHEIT
RH     - RELATIVE HUMIDITY IN PERCENT
WIND   - DIRECTION AND SPEED IN MILES PER HOUR (MPH)
VRB    - VARIABLE WIND DIRECTION
PRES   - MEAN SEA LEVEL PRESSURE IN INCHES OF MERCURY
         F - FALLING PRESSURE   R - RISING PRESSURE
         S - STEADY PRESSURE
VSB    - VISIBILITY IN MILES
HX     - HEAT INDEX IN FAHRENHEIT
WCI    - WIND CHILL INDEX IN FAHRENHEIT
TC     - TEMPERATURE IN CELSIUS WHICH IS ALSO KNOWN AS
         TEMPERATURE IN CENTIGRADE
AFB    - AIR FORCE BASE
         LUKE AFB IS LUKE AIR FORCE BASE
         DAVIS-MONTHAN IS DAVIS-MONTHAN AIR FORCE BASE
NAS    - NAVAL AIR STATION
         EL CENTRO NAS IS EL CENTRO NAVAL AIR STATION
N/A    - NOT AVAILABLE



USA.gov is the U.S. government's official web portal to all federal, state and local government web resources and services.